Time,TemperatureF,DewpointF,PressureIn,WindDirection,WindDirectionDegrees,WindSpeedMPH,WindSpeedGustMPH,Humidity,HourlyPrecipIn,Conditions,Clouds,dailyrainin,SoftwareType,DateUTC
2013-12-14 00:04:00,19.9,14.5,29.96,NE,45,18.0,23.0,79,0.00,,,0.00,meteohub,2013-12-14 06:04:00,
2013-12-14 00:09:00,20.1,14.7,29.96,East,90,17.0,23.0,79,0.00,,,0.00,meteohub,2013-12-14 06:09:00,
2013-12-14 00:14:00,20.1,14.7,29.96,NE,45,12.0,23.0,79,0.00,,,0.00,meteohub,2013-12-14 06:14:00,
2013-12-14 00:19:00,20.3,14.9,29.95,North,0,12.0,19.0,79,0.00,,,0.00,meteohub,2013-12-14 06:19:00,
2013-12-14 00:24:00,20.3,14.5,29.95,East,90,16.0,19.0,78,0.00,,,0.00,meteohub,2013-12-14 06:24:00,
2013-12-14 00:30:00,20.3,14.5,29.95,NE,45,17.0,18.0,78,0.00,,,0.00,meteohub,2013-12-14 06:30:00,
2013-12-14 00:35:00,20.3,14.5,29.94,WNW,293,15.0,18.0,78,0.00,,,0.00,meteohub,2013-12-14 06:35:00,
2013-12-14 00:40:00,20.3,14.5,29.94,NE,45,13.0,20.0,78,0.00,,,0.00,meteohub,2013-12-14 06:40:00,
2013-12-14 00:45:00,20.3,14.5,29.94,NE,45,17.0,20.0,78,0.00,,,0.00,meteohub,2013-12-14 06:45:00,
2013-12-14 00:50:00,20.3,14.5,29.94,NE,45,18.0,20.0,78,0.00,,,0.00,meteohub,2013-12-14 06:50:00,
2013-12-14 00:55:00,20.3,14.5,29.94,NE,45,17.0,17.0,78,0.00,,,0.00,meteohub,2013-12-14 06:55:00,
2013-12-14 01:00:00,20.3,14.5,29.93,NE,45,11.0,18.0,78,0.00,,,0.00,meteohub,2013-12-14 07:00:00,
2013-12-14 01:05:00,20.3,14.5,29.94,NE,45,15.0,19.0,78,0.00,,,0.00,meteohub,2013-12-14 07:05:00,
2013-12-14 01:10:00,20.3,14.5,29.94,NE,45,14.0,19.0,78,0.00,,,0.00,meteohub,2013-12-14 07:10:00,
2013-12-14 01:15:00,20.3,14.5,29.94,NE,45,16.0,18.0,78,0.00,,,0.00,meteohub,2013-12-14 07:15:00,
2013-12-14 01:20:00,20.3,14.9,29.93,NE,45,11.0,22.0,79,0.00,,,0.00,meteohub,2013-12-14 07:20:00,
2013-12-14 01:25:00,20.3,14.9,29.93,SW,225,14.0,22.0,79,0.00,,,0.00,meteohub,2013-12-14 07:25:00,
2013-12-14 01:30:00,20.3,14.9,29.93,NE,45,17.0,22.0,79,0.00,,,0.00,meteohub,2013-12-14 07:30:00,
2013-12-14 01:35:00,20.3,14.9,29.93,NE,45,15.0,21.0,79,0.00,,,0.00,meteohub,2013-12-14 07:35:00,
2013-12-14 01:40:00,20.3,14.9,29.93,North,0,11.0,21.0,79,0.00,,,0.00,meteohub,2013-12-14 07:40:00,
2013-12-14 01:45:00,20.3,14.9,29.93,East,90,11.0,21.0,79,0.00,,,0.00,meteohub,2013-12-14 07:45:00,
2013-12-14 01:50:00,20.3,15.1,29.93,NE,45,22.0,22.0,80,0.00,,,0.00,meteohub,2013-12-14 07:50:00,
2013-12-14 01:55:00,20.3,15.1,29.93,North,0,10.0,22.0,80,0.00,,,0.00,meteohub,2013-12-14 07:55:00,
2013-12-14 02:00:00,20.3,15.1,29.92,NE,45,7.0,22.0,80,0.00,,,0.00,meteohub,2013-12-14 08:00:00,
2013-12-14 02:05:00,20.3,15.1,29.92,NE,45,7.0,22.0,80,0.00,,,0.00,meteohub,2013-12-14 08:05:00,
2013-12-14 02:10:00,20.3,15.1,29.92,NE,45,15.0,21.0,80,0.00,,,0.00,meteohub,2013-12-14 08:10:00,
2013-12-14 02:16:00,20.5,15.6,29.92,NE,45,14.0,21.0,81,0.00,,,0.00,meteohub,2013-12-14 08:16:00,
2013-12-14 02:21:00,20.5,15.6,29.92,NE,45,11.0,23.0,81,0.00,,,0.00,meteohub,2013-12-14 08:21:00,
2013-12-14 02:26:00,20.5,15.6,29.92,North,0,17.0,23.0,81,0.00,,,0.00,meteohub,2013-12-14 08:26:00,
2013-12-14 02:31:00,20.5,15.8,29.91,NE,45,15.0,23.0,82,0.00,,,0.00,meteohub,2013-12-14 08:31:00,
2013-12-14 02:36:00,20.5,15.8,29.91,NE,45,18.0,19.0,82,0.00,,,0.00,meteohub,2013-12-14 08:36:00,
2013-12-14 02:41:00,20.5,15.8,29.91,NE,45,15.0,20.0,82,0.00,,,0.00,meteohub,2013-12-14 08:41:00,
2013-12-14 02:46:00,20.5,15.8,29.91,NE,45,15.0,20.0,82,0.00,,,0.00,meteohub,2013-12-14 08:46:00,
2013-12-14 02:51:00,20.5,15.8,29.91,North,0,13.0,20.0,82,0.00,,,0.00,meteohub,2013-12-14 08:51:00,
2013-12-14 02:56:00,20.5,15.8,29.91,NE,45,19.0,20.0,82,0.00,,,0.00,meteohub,2013-12-14 08:56:00,
2013-12-14 03:02:00,20.5,15.8,29.91,NE,45,17.0,19.0,82,0.00,,,0.00,meteohub,2013-12-14 09:02:00,
2013-12-14 03:07:00,20.7,16.0,29.91,NE,45,13.0,19.0,82,0.00,,,0.00,meteohub,2013-12-14 09:07:00,
2013-12-14 03:12:00,20.7,16.0,29.91,NE,45,13.0,19.0,82,0.00,,,0.00,meteohub,2013-12-14 09:12:00,
2013-12-14 03:17:00,20.7,16.3,29.91,North,0,11.0,18.0,83,0.00,,,0.00,meteohub,2013-12-14 09:17:00,
2013-12-14 03:22:00,20.7,16.3,29.91,NE,45,15.0,21.0,83,0.00,,,0.00,meteohub,2013-12-14 09:22:00,
2013-12-14 03:27:00,20.7,16.3,29.90,North,0,12.0,21.0,83,0.00,,,0.00,meteohub,2013-12-14 09:27:00,
2013-12-14 03:32:00,20.8,16.5,29.90,NE,45,16.0,21.0,83,0.00,,,0.00,meteohub,2013-12-14 09:32:00,
2013-12-14 03:37:00,20.8,16.5,29.90,NE,45,19.0,19.0,83,0.00,,,0.00,meteohub,2013-12-14 09:37:00,
2013-12-14 03:42:00,21.0,16.7,29.91,North,0,13.0,19.0,83,0.00,,,0.00,meteohub,2013-12-14 09:42:00,
2013-12-14 03:47:00,21.0,16.9,29.90,NE,45,12.0,19.0,84,0.00,,,0.00,meteohub,2013-12-14 09:47:00,
2013-12-14 03:52:00,21.0,16.9,29.90,North,0,14.0,19.0,84,0.00,,,0.00,meteohub,2013-12-14 09:52:00,
2013-12-14 03:57:00,21.0,16.7,29.91,NE,45,11.0,19.0,83,0.00,,,0.00,meteohub,2013-12-14 09:57:00,
2013-12-14 04:02:00,21.0,16.7,29.90,NE,45,11.0,19.0,83,0.00,,,0.00,meteohub,2013-12-14 10:02:00,
2013-12-14 04:07:00,21.0,16.7,29.90,North,0,11.0,19.0,83,0.00,,,0.00,meteohub,2013-12-14 10:07:00,
2013-12-14 04:12:00,21.0,16.7,29.89,NE,45,18.0,18.0,83,0.00,,,0.00,meteohub,2013-12-14 10:12:00,
2013-12-14 04:17:00,21.2,16.5,29.89,NE,45,18.0,21.0,82,0.00,,,0.00,meteohub,2013-12-14 10:17:00,
2013-12-14 04:22:00,21.4,16.7,29.89,NE,45,18.0,22.0,82,0.00,,,0.00,meteohub,2013-12-14 10:22:00,
2013-12-14 04:28:00,21.4,16.7,29.89,NE,45,17.0,22.0,82,0.00,,,0.00,meteohub,2013-12-14 10:28:00,
2013-12-14 04:33:00,21.6,16.9,29.88,NE,45,11.0,20.0,82,0.00,,,0.00,meteohub,2013-12-14 10:33:00,
2013-12-14 04:38:00,21.6,16.9,29.88,East,90,11.0,20.0,82,0.00,,,0.00,meteohub,2013-12-14 10:38:00,
2013-12-14 04:43:00,21.7,17.1,29.88,East,90,11.0,17.0,82,0.00,,,0.00,meteohub,2013-12-14 10:43:00,
2013-12-14 04:48:00,21.7,17.1,29.88,East,90,9.0,19.0,82,0.00,,,0.00,meteohub,2013-12-14 10:48:00,
2013-12-14 04:53:00,21.7,17.1,29.88,NE,45,8.0,19.0,82,0.00,,,0.00,meteohub,2013-12-14 10:53:00,
2013-12-14 04:58:00,21.9,17.2,29.89,NE,45,18.0,19.0,82,0.00,,,0.00,meteohub,2013-12-14 10:58:00,
2013-12-14 05:03:00,21.9,17.2,29.89,North,0,8.0,19.0,82,0.00,,,0.00,meteohub,2013-12-14 11:03:00,
2013-12-14 05:08:00,21.9,17.2,29.89,North,0,13.0,19.0,82,0.00,,,0.00,meteohub,2013-12-14 11:08:00,
2013-12-14 05:13:00,21.9,17.2,29.89,NW,315,10.0,18.0,82,0.00,,,0.00,meteohub,2013-12-14 11:13:00,
2013-12-14 05:18:00,21.9,17.2,29.89,NE,45,14.0,17.0,82,0.00,,,0.00,meteohub,2013-12-14 11:18:00,
2013-12-14 05:23:00,21.9,17.2,29.89,NE,45,9.0,16.0,82,0.00,,,0.00,meteohub,2013-12-14 11:23:00,
2013-12-14 05:28:00,21.9,17.2,29.89,NE,45,6.0,16.0,82,0.00,,,0.00,meteohub,2013-12-14 11:28:00,
2013-12-14 05:33:00,21.9,17.2,29.89,North,0,11.0,16.0,82,0.00,,,0.00,meteohub,2013-12-14 11:33:00,
2013-12-14 05:38:00,21.7,17.1,29.89,NE,45,11.0,16.0,82,0.00,,,0.00,meteohub,2013-12-14 11:38:00,
2013-12-14 05:43:00,21.6,16.9,29.89,North,0,15.0,15.0,82,0.00,,,0.00,meteohub,2013-12-14 11:43:00,
2013-12-14 05:48:00,21.4,16.7,29.89,North,0,16.0,17.0,82,0.00,,,0.00,meteohub,2013-12-14 11:48:00,
2013-12-14 05:53:00,21.2,16.5,29.89,North,0,9.0,17.0,82,0.00,,,0.00,meteohub,2013-12-14 11:53:00,
2013-12-14 05:58:00,21.2,16.5,29.89,North,0,16.0,17.0,82,0.00,,,0.00,meteohub,2013-12-14 11:58:00,
2013-12-14 06:04:00,21.2,16.5,29.89,NE,45,14.0,19.0,82,0.00,,,0.00,meteohub,2013-12-14 12:04:00,
2013-12-14 06:09:00,21.2,16.5,29.89,East,90,11.0,22.0,82,0.00,,,0.00,meteohub,2013-12-14 12:09:00,
2013-12-14 06:14:00,21.2,16.5,29.89,North,0,13.0,22.0,82,0.00,,,0.00,meteohub,2013-12-14 12:14:00,
2013-12-14 06:19:00,21.2,16.5,29.89,NE,45,14.0,15.0,82,0.00,,,0.00,meteohub,2013-12-14 12:19:00,
2013-12-14 06:24:00,21.2,16.5,29.89,North,0,15.0,15.0,82,0.00,,,0.00,meteohub,2013-12-14 12:24:00,
2013-12-14 06:29:00,21.0,16.7,29.89,NE,45,16.0,16.0,83,0.00,,,0.00,meteohub,2013-12-14 12:29:00,
2013-12-14 06:34:00,21.0,16.7,29.89,NE,45,9.0,15.0,83,0.00,,,0.00,meteohub,2013-12-14 12:34:00,
2013-12-14 06:39:00,21.0,16.7,29.89,NE,45,15.0,16.0,83,0.00,,,0.00,meteohub,2013-12-14 12:39:00,
2013-12-14 06:44:00,21.0,16.7,29.90,SW,225,18.0,19.0,83,0.00,,,0.00,meteohub,2013-12-14 12:44:00,
2013-12-14 06:49:00,21.0,16.7,29.89,North,0,17.0,20.0,83,0.00,,,0.00,meteohub,2013-12-14 12:49:00,
2013-12-14 06:54:00,20.8,16.5,29.90,NE,45,12.0,21.0,83,0.00,,,0.00,meteohub,2013-12-14 12:54:00,
2013-12-14 06:59:00,20.7,16.0,29.90,NE,45,11.0,21.0,82,0.00,,,0.00,meteohub,2013-12-14 12:59:00,
2013-12-14 07:04:00,20.7,16.0,29.90,North,0,17.0,21.0,82,0.00,,,0.00,meteohub,2013-12-14 13:04:00,
2013-12-14 07:09:00,20.7,16.0,29.91,North,0,11.0,17.0,82,0.00,,,0.00,meteohub,2013-12-14 13:09:00,
2013-12-14 07:14:00,20.7,16.0,29.91,North,0,16.0,17.0,82,0.00,,,0.00,meteohub,2013-12-14 13:14:00,
2013-12-14 07:19:00,20.7,16.0,29.91,NE,45,5.0,17.0,82,0.00,,,0.00,meteohub,2013-12-14 13:19:00,
2013-12-14 07:24:00,20.7,16.0,29.91,North,0,13.0,16.0,82,0.00,,,0.00,meteohub,2013-12-14 13:24:00,
2013-12-14 07:29:00,20.7,16.0,29.91,North,0,9.0,16.0,82,0.00,,,0.00,meteohub,2013-12-14 13:29:00,
2013-12-14 07:34:00,20.7,16.0,29.91,NE,45,12.0,15.0,82,0.00,,,0.00,meteohub,2013-12-14 13:34:00,
2013-12-14 07:40:00,20.7,16.0,29.91,North,0,8.0,15.0,82,0.00,,,0.00,meteohub,2013-12-14 13:40:00,
2013-12-14 07:45:00,20.8,16.0,29.92,North,0,8.0,15.0,81,0.00,,,0.00,meteohub,2013-12-14 13:45:00,
2013-12-14 07:50:00,20.8,16.0,29.92,NE,45,10.0,15.0,81,0.00,,,0.00,meteohub,2013-12-14 13:50:00,
2013-12-14 07:55:00,20.7,15.8,29.91,NE,45,4.0,11.0,81,0.00,,,0.00,meteohub,2013-12-14 13:55:00,
2013-12-14 08:00:00,20.7,16.0,29.91,WSW,248,9.0,12.0,82,0.00,,,0.00,meteohub,2013-12-14 14:00:00,
2013-12-14 08:05:00,20.7,16.0,29.91,North,0,8.0,14.0,82,0.00,,,0.00,meteohub,2013-12-14 14:05:00,
2013-12-14 08:10:00,20.7,16.0,29.91,NE,45,13.0,14.0,82,0.00,,,0.00,meteohub,2013-12-14 14:10:00,
2013-12-14 08:15:00,20.7,16.0,29.91,WNW,293,8.0,16.0,82,0.00,,,0.00,meteohub,2013-12-14 14:15:00,
2013-12-14 08:20:00,20.8,16.2,29.90,NE,45,11.0,16.0,82,0.00,,,0.00,meteohub,2013-12-14 14:20:00,
2013-12-14 08:25:00,20.8,16.2,29.90,NE,45,12.0,16.0,82,0.00,,,0.00,meteohub,2013-12-14 14:25:00,
2013-12-14 08:30:00,20.8,16.5,29.90,NE,45,11.0,15.0,83,0.00,,,0.00,meteohub,2013-12-14 14:30:00,
2013-12-14 08:35:00,21.0,16.7,29.90,North,0,7.0,17.0,83,0.00,,,0.00,meteohub,2013-12-14 14:35:00,
2013-12-14 08:40:00,21.2,16.5,29.90,North,0,11.0,17.0,82,0.00,,,0.00,meteohub,2013-12-14 14:40:00,
2013-12-14 08:45:00,21.4,16.7,29.90,North,0,9.0,17.0,82,0.00,,,0.00,meteohub,2013-12-14 14:45:00,
2013-12-14 08:50:00,21.7,17.1,29.90,North,0,10.0,16.0,82,0.00,,,0.00,meteohub,2013-12-14 14:50:00,
2013-12-14 08:55:00,21.9,17.2,29.90,North,0,15.0,17.0,82,0.00,,,0.00,meteohub,2013-12-14 14:55:00,
2013-12-14 09:00:00,22.1,17.2,29.90,North,0,13.0,17.0,81,0.00,,,0.00,meteohub,2013-12-14 15:00:00,
2013-12-14 09:05:00,22.5,17.6,29.90,North,0,8.0,17.0,81,0.00,,,0.00,meteohub,2013-12-14 15:05:00,
2013-12-14 09:10:00,22.5,17.2,29.91,North,0,11.0,15.0,80,0.00,,,0.00,meteohub,2013-12-14 15:10:00,
2013-12-14 09:16:00,22.6,17.4,29.91,North,0,17.0,17.0,80,0.00,,,0.00,meteohub,2013-12-14 15:16:00,
2013-12-14 09:21:00,22.6,17.1,29.91,North,0,8.0,17.0,79,0.00,,,0.00,meteohub,2013-12-14 15:21:00,
2013-12-14 09:26:00,22.5,16.9,29.91,North,0,5.0,18.0,79,0.00,,,0.00,meteohub,2013-12-14 15:26:00,
2013-12-14 09:31:00,22.8,17.1,29.91,NE,45,8.0,18.0,78,0.00,,,0.00,meteohub,2013-12-14 15:31:00,
2013-12-14 09:36:00,23.0,16.9,29.91,NE,45,8.0,18.0,77,0.00,,,0.00,meteohub,2013-12-14 15:36:00,
2013-12-14 09:41:00,22.8,16.7,29.91,North,0,8.0,15.0,77,0.00,,,0.00,meteohub,2013-12-14 15:41:00,
2013-12-14 09:46:00,22.8,16.7,29.92,NE,45,9.0,15.0,77,0.00,,,0.00,meteohub,2013-12-14 15:46:00,
2013-12-14 09:51:00,22.6,16.5,29.92,NE,45,8.0,13.0,77,0.00,,,0.00,meteohub,2013-12-14 15:51:00,
2013-12-14 09:56:00,22.5,16.0,29.91,North,0,11.0,17.0,76,0.00,,,0.00,meteohub,2013-12-14 15:56:00,
2013-12-14 10:01:00,22.5,16.0,29.92,WNW,293,11.0,17.0,76,0.00,,,0.00,meteohub,2013-12-14 16:01:00,
2013-12-14 10:06:00,22.6,16.2,29.91,SE,135,15.0,17.0,76,0.00,,,0.00,meteohub,2013-12-14 16:06:00,
2013-12-14 10:11:00,22.5,16.0,29.91,North,0,11.0,15.0,76,0.00,,,0.00,meteohub,2013-12-14 16:11:00,
2013-12-14 10:16:00,22.5,16.0,29.91,NE,45,8.0,16.0,76,0.00,,,0.00,meteohub,2013-12-14 16:16:00,
2013-12-14 10:21:00,22.6,16.2,29.91,NE,45,8.0,16.0,76,0.00,,,0.00,meteohub,2013-12-14 16:21:00,
2013-12-14 10:26:00,22.8,16.3,29.91,North,0,7.0,15.0,76,0.00,,,0.00,meteohub,2013-12-14 16:26:00,
2013-12-14 10:31:00,23.0,16.3,29.91,North,0,5.0,15.0,75,0.00,,,0.00,meteohub,2013-12-14 16:31:00,
2013-12-14 10:37:00,23.2,16.5,29.92,North,0,16.0,16.0,75,0.00,,,0.00,meteohub,2013-12-14 16:37:00,
2013-12-14 10:42:00,23.2,16.5,29.91,North,0,8.0,17.0,75,0.00,,,0.00,meteohub,2013-12-14 16:42:00,
2013-12-14 10:47:00,23.4,16.7,29.91,North,0,11.0,17.0,75,0.00,,,0.00,meteohub,2013-12-14 16:47:00,
2013-12-14 10:52:00,23.7,16.9,29.91,NNW,338,10.0,17.0,75,0.00,,,0.00,meteohub,2013-12-14 16:52:00,
2013-12-14 10:57:00,23.9,17.1,29.91,North,0,8.0,15.0,75,0.00,,,0.00,meteohub,2013-12-14 16:57:00,
2013-12-14 11:02:00,23.7,16.9,29.91,North,0,8.0,16.0,75,0.00,,,0.00,meteohub,2013-12-14 17:02:00,
2013-12-14 11:07:00,24.1,17.2,29.91,North,0,5.0,16.0,75,0.00,,,0.00,meteohub,2013-12-14 17:07:00,
2013-12-14 11:12:00,24.3,17.4,29.91,North,0,8.0,16.0,75,0.00,,,0.00,meteohub,2013-12-14 17:12:00,
2013-12-14 11:17:00,24.1,17.2,29.91,North,0,10.0,15.0,75,0.00,,,0.00,meteohub,2013-12-14 17:17:00,
2013-12-14 11:22:00,24.1,17.2,29.91,NW,315,8.0,11.0,75,0.00,,,0.00,meteohub,2013-12-14 17:22:00,
2013-12-14 11:27:00,24.1,17.2,29.91,North,0,8.0,12.0,75,0.00,,,0.00,meteohub,2013-12-14 17:27:00,
2013-12-14 11:32:00,24.3,17.4,29.90,NE,45,7.0,12.0,75,0.00,,,0.00,meteohub,2013-12-14 17:32:00,
2013-12-14 11:37:00,24.3,17.4,29.90,NE,45,6.0,10.0,75,0.00,,,0.00,meteohub,2013-12-14 17:37:00,
2013-12-14 11:42:00,24.3,17.4,29.90,North,0,7.0,11.0,75,0.00,,,0.00,meteohub,2013-12-14 17:42:00,
2013-12-14 11:48:00,24.1,17.2,29.90,NE,45,10.0,11.0,75,0.00,,,0.00,meteohub,2013-12-14 17:48:00,
2013-12-14 11:53:00,24.1,17.2,29.90,North,0,8.0,11.0,75,0.00,,,0.00,meteohub,2013-12-14 17:53:00,
2013-12-14 11:58:00,23.9,16.9,29.90,North,0,9.0,14.0,74,0.00,,,0.00,meteohub,2013-12-14 17:58:00,
2013-12-14 12:03:00,23.9,17.1,29.90,North,0,7.0,14.0,75,0.00,,,0.00,meteohub,2013-12-14 18:03:00,
2013-12-14 12:08:00,23.9,17.1,29.90,North,0,12.0,14.0,75,0.00,,,0.00,meteohub,2013-12-14 18:08:00,
2013-12-14 12:13:00,23.9,17.1,29.90,North,0,9.0,15.0,75,0.00,,,0.00,meteohub,2013-12-14 18:13:00,
2013-12-14 12:18:00,24.1,17.2,29.90,NE,45,8.0,15.0,75,0.00,,,0.00,meteohub,2013-12-14 18:18:00,
2013-12-14 12:23:00,24.1,17.2,29.90,North,0,11.0,15.0,75,0.00,,,0.00,meteohub,2013-12-14 18:23:00,
2013-12-14 12:28:00,23.9,17.1,29.89,North,0,8.0,13.0,75,0.00,,,0.00,meteohub,2013-12-14 18:28:00,
2013-12-14 12:33:00,23.7,16.9,29.90,NW,315,8.0,13.0,75,0.00,,,0.00,meteohub,2013-12-14 18:33:00,
2013-12-14 12:38:00,23.7,16.9,29.89,NE,45,11.0,13.0,75,0.00,,,0.00,meteohub,2013-12-14 18:38:00,
2013-12-14 12:43:00,23.9,17.4,29.89,North,0,11.0,13.0,76,0.00,,,0.00,meteohub,2013-12-14 18:43:00,
2013-12-14 12:48:00,23.9,17.1,29.89,North,0,15.0,15.0,75,0.00,,,0.00,meteohub,2013-12-14 18:48:00,
2013-12-14 12:53:00,23.9,17.1,29.88,North,0,15.0,15.0,75,0.00,,,0.00,meteohub,2013-12-14 18:53:00,
2013-12-14 12:58:00,24.1,17.2,29.88,North,0,5.0,15.0,75,0.00,,,0.00,meteohub,2013-12-14 18:58:00,
2013-12-14 13:04:00,24.6,17.8,29.88,North,0,10.0,15.0,75,0.00,,,0.00,meteohub,2013-12-14 19:04:00,
2013-12-14 13:09:00,24.3,17.2,29.88,North,0,10.0,15.0,74,0.00,,,0.00,meteohub,2013-12-14 19:09:00,
2013-12-14 13:14:00,24.1,16.7,29.89,North,0,10.0,12.0,73,0.00,,,0.00,meteohub,2013-12-14 19:14:00,
2013-12-14 13:19:00,24.3,16.9,29.88,North,0,8.0,13.0,73,0.00,,,0.00,meteohub,2013-12-14 19:19:00,
2013-12-14 13:24:00,24.6,17.2,29.88,North,0,10.0,13.0,73,0.00,,,0.00,meteohub,2013-12-14 19:24:00,
2013-12-14 13:29:00,24.6,16.5,29.89,North,0,16.0,16.0,71,0.00,,,0.00,meteohub,2013-12-14 19:29:00,
2013-12-14 13:34:00,23.9,15.6,29.90,NW,315,13.0,15.0,70,0.00,,,0.00,meteohub,2013-12-14 19:34:00,
2013-12-14 13:39:00,23.9,15.8,29.90,NW,315,9.0,16.0,71,0.00,,,0.00,meteohub,2013-12-14 19:39:00,
2013-12-14 13:44:00,23.7,15.6,29.90,North,0,8.0,16.0,71,0.00,,,0.00,meteohub,2013-12-14 19:44:00,
2013-12-14 13:49:00,23.7,15.6,29.90,NW,315,15.0,15.0,71,0.00,,,0.00,meteohub,2013-12-14 19:49:00,
2013-12-14 13:54:00,23.4,15.4,29.90,NW,315,17.0,17.0,71,0.00,,,0.00,meteohub,2013-12-14 19:54:00,
2013-12-14 13:59:00,23.2,15.4,29.91,North,0,9.0,17.0,72,0.00,,,0.00,meteohub,2013-12-14 19:59:00,
2013-12-14 14:04:00,23.5,16.2,29.91,North,0,6.0,17.0,73,0.00,,,0.00,meteohub,2013-12-14 20:04:00,
2013-12-14 14:09:00,23.7,16.3,29.90,North,0,8.0,17.0,73,0.00,,,0.00,meteohub,2013-12-14 20:09:00,
2013-12-14 14:15:00,23.7,16.3,29.90,NW,315,8.0,15.0,73,0.00,,,0.00,meteohub,2013-12-14 20:15:00,
2013-12-14 14:20:00,23.7,16.0,29.89,NW,315,11.0,12.0,72,0.00,,,0.00,meteohub,2013-12-14 20:20:00,
2013-12-14 14:25:00,23.7,16.0,29.89,NW,315,8.0,12.0,72,0.00,,,0.00,meteohub,2013-12-14 20:25:00,
2013-12-14 14:30:00,23.9,15.8,29.90,North,0,7.0,12.0,71,0.00,,,0.00,meteohub,2013-12-14 20:30:00,
2013-12-14 14:35:00,23.9,15.8,29.89,North,0,11.0,11.0,71,0.00,,,0.00,meteohub,2013-12-14 20:35:00,
2013-12-14 14:40:00,24.1,16.0,29.89,North,0,8.0,14.0,71,0.00,,,0.00,meteohub,2013-12-14 20:40:00,
2013-12-14 14:45:00,24.3,16.2,29.89,North,0,7.0,14.0,71,0.00,,,0.00,meteohub,2013-12-14 20:45:00,
2013-12-14 14:50:00,24.6,16.2,29.89,North,0,4.0,14.0,70,0.00,,,0.00,meteohub,2013-12-14 20:50:00,
2013-12-14 14:55:00,24.4,16.0,29.89,NW,315,9.0,9.0,70,0.00,,,0.00,meteohub,2013-12-14 20:55:00,
2013-12-14 15:00:00,24.1,15.8,29.89,NW,315,6.0,9.0,70,0.00,,,0.00,meteohub,2013-12-14 21:00:00,
2013-12-14 15:05:00,24.4,16.0,29.89,North,0,10.0,10.0,70,0.00,,,0.00,meteohub,2013-12-14 21:05:00,
2013-12-14 15:10:00,24.4,16.0,29.89,NW,315,9.0,10.0,70,0.00,,,0.00,meteohub,2013-12-14 21:10:00,
2013-12-14 15:15:00,24.3,15.6,29.90,North,0,10.0,10.0,69,0.00,,,0.00,meteohub,2013-12-14 21:15:00,
2013-12-14 15:21:00,24.1,15.4,29.90,North,0,11.0,11.0,69,0.00,,,0.00,meteohub,2013-12-14 21:21:00,
2013-12-14 15:26:00,23.9,15.3,29.91,NW,315,9.0,12.0,69,0.00,,,0.00,meteohub,2013-12-14 21:26:00,
2013-12-14 15:31:00,23.9,15.3,29.90,NW,315,6.0,12.0,69,0.00,,,0.00,meteohub,2013-12-14 21:31:00,
2013-12-14 15:36:00,24.1,15.4,29.91,North,0,5.0,12.0,69,0.00,,,0.00,meteohub,2013-12-14 21:36:00,
2013-12-14 15:41:00,23.9,14.9,29.91,North,0,6.0,10.0,68,0.00,,,0.00,meteohub,2013-12-14 21:41:00,
2013-12-14 15:46:00,23.7,14.7,29.91,North,0,8.0,8.0,68,0.00,,,0.00,meteohub,2013-12-14 21:46:00,
2013-12-14 15:51:00,23.5,14.9,29.91,NW,315,7.0,8.0,69,0.00,,,0.00,meteohub,2013-12-14 21:51:00,
2013-12-14 15:56:00,23.4,14.7,29.91,North,0,6.0,8.0,69,0.00,,,0.00,meteohub,2013-12-14 21:56:00,
2013-12-14 16:01:00,23.0,14.4,29.91,North,0,7.0,8.0,69,0.00,,,0.00,meteohub,2013-12-14 22:01:00,
2013-12-14 16:06:00,22.6,14.4,29.91,NW,315,6.0,7.0,70,0.00,,,0.00,meteohub,2013-12-14 22:06:00,
2013-12-14 16:11:00,22.5,14.5,29.91,West,270,6.0,7.0,71,0.00,,,0.00,meteohub,2013-12-14 22:11:00,
2013-12-14 16:16:00,21.9,14.0,29.92,North,0,7.0,7.0,71,0.00,,,0.00,meteohub,2013-12-14 22:16:00,
2013-12-14 16:21:00,21.6,14.0,29.91,North,0,4.0,7.0,72,0.00,,,0.00,meteohub,2013-12-14 22:21:00,
2013-12-14 16:26:00,21.4,14.0,29.91,NW,315,4.0,7.0,73,0.00,,,0.00,meteohub,2013-12-14 22:26:00,
2013-12-14 16:31:00,21.2,13.8,29.91,NW,315,2.0,7.0,73,0.00,,,0.00,meteohub,2013-12-14 22:31:00,
2013-12-14 16:37:00,20.8,13.8,29.91,North,0,2.0,5.0,74,0.00,,,0.00,meteohub,2013-12-14 22:37:00,
2013-12-14 16:42:00,20.7,14.0,29.91,NW,315,1.0,4.0,75,0.00,,,0.00,meteohub,2013-12-14 22:42:00,
2013-12-14 16:47:00,20.3,13.6,29.91,NW,315,2.0,3.0,75,0.00,,,0.00,meteohub,2013-12-14 22:47:00,
2013-12-14 16:52:00,20.1,13.5,29.91,NW,315,2.0,4.0,75,0.00,,,0.00,meteohub,2013-12-14 22:52:00,
2013-12-14 16:57:00,19.9,13.3,29.91,NW,315,4.0,4.0,75,0.00,,,0.00,meteohub,2013-12-14 22:57:00,
2013-12-14 17:02:00,19.9,13.3,29.91,NW,315,3.0,4.0,75,0.00,,,0.00,meteohub,2013-12-14 23:02:00,
2013-12-14 17:07:00,19.6,12.9,29.91,North,0,4.0,4.0,75,0.00,,,0.00,meteohub,2013-12-14 23:07:00,
2013-12-14 17:12:00,19.6,13.3,29.91,West,270,6.0,7.0,76,0.00,,,0.00,meteohub,2013-12-14 23:12:00,
2013-12-14 17:17:00,19.6,13.3,29.90,NW,315,7.0,8.0,76,0.00,,,0.00,meteohub,2013-12-14 23:17:00,
2013-12-14 17:22:00,19.4,13.1,29.91,NW,315,4.0,8.0,76,0.00,,,0.00,meteohub,2013-12-14 23:22:00,
2013-12-14 17:27:00,19.2,11.7,29.91,NW,315,6.0,8.0,72,0.00,,,0.00,meteohub,2013-12-14 23:27:00,
2013-12-14 17:32:00,19.0,11.5,29.91,North,0,8.0,8.0,72,0.00,,,0.00,meteohub,2013-12-14 23:32:00,
2013-12-14 17:37:00,19.0,11.8,29.91,NW,315,7.0,8.0,73,0.00,,,0.00,meteohub,2013-12-14 23:37:00,
2013-12-14 17:42:00,19.0,11.8,29.91,North,0,9.0,9.0,73,0.00,,,0.00,meteohub,2013-12-14 23:42:00,
2013-12-14 17:47:00,19.2,12.0,29.90,NW,315,8.0,9.0,73,0.00,,,0.00,meteohub,2013-12-14 23:47:00,
2013-12-14 17:52:00,19.2,12.0,29.90,North,0,8.0,9.0,73,0.00,,,0.00,meteohub,2013-12-14 23:52:00,
2013-12-14 17:57:00,19.2,12.0,29.90,North,0,8.0,9.0,73,0.00,,,0.00,meteohub,2013-12-14 23:57:00,
2013-12-14 18:02:00,19.2,12.0,29.89,NW,315,6.0,9.0,73,0.00,,,0.00,meteohub,2013-12-15 00:02:00,
2013-12-14 18:07:00,19.4,13.5,29.89,North,0,7.0,9.0,77,0.00,,,0.00,meteohub,2013-12-15 00:07:00,
2013-12-14 18:12:00,19.6,13.6,29.89,NW,315,6.0,9.0,77,0.00,,,0.00,meteohub,2013-12-15 00:12:00,
2013-12-14 18:17:00,19.6,13.6,29.88,NW,315,8.0,8.0,77,0.00,,,0.00,meteohub,2013-12-15 00:17:00,
2013-12-14 18:22:00,19.8,13.6,29.88,North,0,11.0,11.0,77,0.00,,,0.00,meteohub,2013-12-15 00:22:00,
2013-12-14 18:27:00,19.8,13.6,29.88,NW,315,10.0,11.0,77,0.00,,,0.00,meteohub,2013-12-15 00:27:00,
2013-12-14 18:32:00,19.9,13.8,29.88,NW,315,8.0,11.0,77,0.00,,,0.00,meteohub,2013-12-15 00:32:00,
2013-12-14 18:37:00,19.9,13.8,29.88,North,0,7.0,11.0,77,0.00,,,0.00,meteohub,2013-12-15 00:37:00,
2013-12-14 18:42:00,19.9,13.6,29.88,North,0,10.0,11.0,76,0.00,,,0.00,meteohub,2013-12-15 00:42:00,
2013-12-14 18:47:00,20.1,13.8,29.88,NW,315,10.0,11.0,76,0.00,,,0.00,meteohub,2013-12-15 00:47:00,
2013-12-14 18:52:00,20.3,14.0,29.88,NW,315,6.0,11.0,76,0.00,,,0.00,meteohub,2013-12-15 00:52:00,
2013-12-14 18:57:00,20.3,14.0,29.88,West,270,8.0,11.0,76,0.00,,,0.00,meteohub,2013-12-15 00:57:00,
2013-12-14 19:02:00,20.3,14.0,29.88,WNW,293,11.0,11.0,76,0.00,,,0.00,meteohub,2013-12-15 01:02:00,
2013-12-14 19:07:00,20.5,14.2,29.88,North,0,8.0,11.0,76,0.00,,,0.00,meteohub,2013-12-15 01:07:00,
2013-12-14 19:12:00,20.5,14.2,29.88,NW,315,6.0,11.0,76,0.00,,,0.00,meteohub,2013-12-15 01:12:00,
2013-12-14 19:17:00,20.7,14.4,29.88,NW,315,4.0,11.0,76,0.00,,,0.00,meteohub,2013-12-15 01:17:00,
2013-12-14 19:22:00,20.7,14.4,29.88,West,270,6.0,8.0,76,0.00,,,0.00,meteohub,2013-12-15 01:22:00,
2013-12-14 19:27:00,20.7,14.4,29.88,NW,315,5.0,8.0,76,0.00,,,0.00,meteohub,2013-12-15 01:27:00,
2013-12-14 19:32:00,20.7,14.4,29.88,West,270,4.0,8.0,76,0.00,,,0.00,meteohub,2013-12-15 01:32:00,
2013-12-14 19:37:00,20.7,14.4,29.88,West,270,6.0,8.0,76,0.00,,,0.00,meteohub,2013-12-15 01:37:00,
2013-12-14 19:42:00,20.7,14.4,29.88,West,270,6.0,8.0,76,0.00,,,0.00,meteohub,2013-12-15 01:42:00,
2013-12-14 19:47:00,20.7,14.4,29.88,NW,315,3.0,7.0,76,0.00,,,0.00,meteohub,2013-12-15 01:47:00,
2013-12-14 19:52:00,20.7,14.4,29.88,West,270,7.0,7.0,76,0.00,,,0.00,meteohub,2013-12-15 01:52:00,
2013-12-14 19:57:00,20.8,14.5,29.87,SW,225,4.0,8.0,76,0.00,,,0.00,meteohub,2013-12-15 01:57:00,
2013-12-14 20:02:00,20.8,14.5,29.87,North,0,7.0,8.0,76,0.00,,,0.00,meteohub,2013-12-15 02:02:00,
2013-12-14 20:07:00,20.7,14.4,29.87,West,270,10.0,10.0,76,0.00,,,0.00,meteohub,2013-12-15 02:07:00,
2013-12-14 20:12:00,20.7,14.4,29.87,North,0,8.0,10.0,76,0.00,,,0.00,meteohub,2013-12-15 02:12:00,
2013-12-14 20:17:00,20.8,14.5,29.87,NW,315,10.0,11.0,76,0.00,,,0.00,meteohub,2013-12-15 02:17:00,
2013-12-14 20:22:00,20.8,14.5,29.87,West,270,10.0,11.0,76,0.00,,,0.00,meteohub,2013-12-15 02:22:00,
2013-12-14 20:27:00,20.7,14.4,29.87,NW,315,8.0,15.0,76,0.00,,,0.00,meteohub,2013-12-15 02:27:00,
2013-12-14 20:32:00,20.7,14.4,29.87,NW,315,8.0,15.0,76,0.00,,,0.00,meteohub,2013-12-15 02:32:00,
2013-12-14 20:37:00,20.7,14.4,29.86,WNW,293,9.0,15.0,76,0.00,,,0.00,meteohub,2013-12-15 02:37:00,
2013-12-14 20:42:00,20.7,14.4,29.86,West,270,9.0,11.0,76,0.00,,,0.00,meteohub,2013-12-15 02:42:00,
2013-12-14 20:48:00,20.5,14.2,29.86,NW,315,6.0,10.0,76,0.00,,,0.00,meteohub,2013-12-15 02:48:00,
2013-12-14 20:53:00,20.5,14.2,29.86,NW,315,4.0,9.0,76,0.00,,,0.00,meteohub,2013-12-15 02:53:00,
2013-12-14 20:58:00,20.3,14.0,29.86,North,0,11.0,11.0,76,0.00,,,0.00,meteohub,2013-12-15 02:58:00,
2013-12-14 21:03:00,20.3,14.0,29.86,West,270,10.0,10.0,76,0.00,,,0.00,meteohub,2013-12-15 03:03:00,
2013-12-14 21:08:00,20.3,14.0,29.86,NW,315,10.0,12.0,76,0.00,,,0.00,meteohub,2013-12-15 03:08:00,
2013-12-14 21:13:00,20.1,13.8,29.86,West,270,9.0,12.0,76,0.00,,,0.00,meteohub,2013-12-15 03:13:00,
2013-12-14 21:18:00,20.1,13.8,29.86,SW,225,8.0,12.0,76,0.00,,,0.00,meteohub,2013-12-15 03:18:00,
2013-12-14 21:23:00,20.1,13.5,29.86,West,270,11.0,12.0,75,0.00,,,0.00,meteohub,2013-12-15 03:23:00,
2013-12-14 21:28:00,19.9,13.3,29.85,North,0,7.0,12.0,75,0.00,,,0.00,meteohub,2013-12-15 03:28:00,
2013-12-14 21:33:00,19.9,13.3,29.86,NW,315,14.0,14.0,75,0.00,,,0.00,meteohub,2013-12-15 03:33:00,
2013-12-14 21:38:00,19.6,12.9,29.86,West,270,7.0,14.0,75,0.00,,,0.00,meteohub,2013-12-15 03:38:00,
2013-12-14 21:43:00,19.4,12.7,29.86,NW,315,7.0,14.0,75,0.00,,,0.00,meteohub,2013-12-15 03:43:00,
2013-12-14 21:48:00,19.4,12.7,29.86,NW,315,13.0,15.0,75,0.00,,,0.00,meteohub,2013-12-15 03:48:00,
2013-12-14 21:53:00,19.2,10.8,29.86,North,0,15.0,15.0,69,0.00,,,0.00,meteohub,2013-12-15 03:53:00,
2013-12-14 21:59:00,19.0,9.9,29.86,WNW,293,11.0,17.0,67,0.00,,,0.00,meteohub,2013-12-15 03:59:00,
2013-12-14 22:04:00,19.0,9.9,29.85,NW,315,14.0,17.0,67,0.00,,,0.00,meteohub,2013-12-15 04:04:00,
2013-12-14 22:09:00,18.9,9.3,29.85,North,0,3.0,17.0,66,0.00,,,0.00,meteohub,2013-12-15 04:09:00,
2013-12-14 22:14:00,18.9,9.3,29.85,West,270,12.0,15.0,66,0.00,,,0.00,meteohub,2013-12-15 04:14:00,
2013-12-14 22:19:00,18.7,9.1,29.85,NW,315,9.0,14.0,66,0.00,,,0.00,meteohub,2013-12-15 04:19:00,
2013-12-14 22:24:00,18.3,9.0,29.85,NW,315,6.0,14.0,66,0.00,,,0.00,meteohub,2013-12-15 04:24:00,
2013-12-14 22:29:00,18.1,9.0,29.85,NW,315,8.0,13.0,67,0.00,,,0.00,meteohub,2013-12-15 04:29:00,
2013-12-14 22:35:00,18.1,9.0,29.85,West,270,11.0,13.0,67,0.00,,,0.00,meteohub,2013-12-15 04:35:00,
2013-12-14 22:40:00,18.0,8.8,29.85,North,0,8.0,13.0,67,0.00,,,0.00,meteohub,2013-12-15 04:40:00,
2013-12-14 22:45:00,17.6,8.2,29.85,West,270,10.0,15.0,66,0.00,,,0.00,meteohub,2013-12-15 04:45:00,
2013-12-14 22:50:00,17.6,8.2,29.84,West,270,9.0,15.0,66,0.00,,,0.00,meteohub,2013-12-15 04:50:00,
2013-12-14 22:55:00,17.4,8.4,29.84,West,270,16.0,16.0,67,0.00,,,0.00,meteohub,2013-12-15 04:55:00,
2013-12-14 23:00:00,17.2,7.9,29.84,West,270,14.0,20.0,66,0.00,,,0.00,meteohub,2013-12-15 05:00:00,
2013-12-14 23:01:00,17.1,7.7,29.84,NW,315,9.0,20.0,66,0.00,,,0.00,meteohub,2013-12-15 05:01:00,
2013-12-14 23:02:00,17.1,7.7,29.84,SW,225,10.0,20.0,66,0.00,,,0.00,meteohub,2013-12-15 05:02:00,
2013-12-14 23:03:00,17.1,7.7,29.84,West,270,11.0,20.0,66,0.00,,,0.00,meteohub,2013-12-15 05:03:00,
2013-12-14 23:08:00,17.1,7.7,29.84,North,0,8.0,20.0,66,0.00,,,0.00,meteohub,2013-12-15 05:08:00,
2013-12-14 23:09:00,17.1,7.7,29.84,West,270,10.0,20.0,66,0.00,,,0.00,meteohub,2013-12-15 05:09:00,
2013-12-14 23:12:00,17.1,7.7,29.84,West,270,10.0,20.0,66,0.00,,,0.00,meteohub,2013-12-15 05:12:00,
2013-12-14 23:17:00,16.9,7.5,29.84,West,270,11.0,15.0,66,0.00,,,0.00,meteohub,2013-12-15 05:17:00,
2013-12-14 23:22:00,16.9,7.5,29.84,West,270,11.0,16.0,66,0.00,,,0.00,meteohub,2013-12-15 05:22:00,
2013-12-14 23:27:00,16.7,7.3,29.84,NW,315,11.0,16.0,66,0.00,,,0.00,meteohub,2013-12-15 05:27:00,
2013-12-14 23:32:00,16.7,7.3,29.83,NW,315,9.0,16.0,66,0.00,,,0.00,meteohub,2013-12-15 05:32:00,
2013-12-14 23:37:00,16.5,7.2,29.84,NW,315,10.0,16.0,66,0.00,,,0.00,meteohub,2013-12-15 05:37:00,
2013-12-14 23:42:00,16.3,7.0,29.84,West,270,14.0,16.0,66,0.00,,,0.00,meteohub,2013-12-15 05:42:00,
2013-12-14 23:47:00,16.3,7.3,29.83,NW,315,15.0,15.0,67,0.00,,,0.00,meteohub,2013-12-15 05:47:00,
2013-12-14 23:52:00,16.2,7.2,29.83,West,270,14.0,15.0,67,0.00,,,0.00,meteohub,2013-12-15 05:52:00,
2013-12-14 23:57:00,16.0,7.0,29.83,West,270,15.0,16.0,67,0.00,,,0.00,meteohub,2013-12-15 05:57:00,